Time,TemperatureF,DewpointF,PressureIn,WindDirection,WindDirectionDegrees,WindSpeedMPH,WindSpeedGustMPH,Humidity,HourlyPrecipIn,Conditions,Clouds,dailyrainin,SoftwareType,DateUTC
2013-03-27 00:03:00,27.0,-99.9,30.28,WSW,248,2.0,3.0,-999,0.00,,,0.00,,2013-03-27 05:03:00,
2013-03-27 00:13:00,27.0,-99.9,30.28,WSW,248,2.0,3.0,-999,0.00,,,0.00,,2013-03-27 05:13:00,
2013-03-27 00:23:00,27.0,-99.9,30.27,West,270,3.0,6.0,-999,0.00,,,0.00,,2013-03-27 05:23:00,
2013-03-27 00:33:00,27.0,-99.9,30.27,West,270,3.0,6.0,-999,0.00,,,0.00,,2013-03-27 05:33:00,
2013-03-27 00:42:00,27.0,-99.9,30.27,West,270,3.0,6.0,-999,0.00,,,0.00,,2013-03-27 05:42:00,
2013-03-27 00:53:00,28.0,-99.9,30.27,West,270,5.0,6.0,-999,0.00,,,0.00,,2013-03-27 05:53:00,
2013-03-27 01:02:00,28.0,-99.9,30.27,West,270,3.0,6.0,-999,0.00,,,0.00,,2013-03-27 06:02:00,
2013-03-27 01:12:00,28.0,-99.9,30.27,West,270,3.0,6.0,-999,0.00,,,0.00,,2013-03-27 06:12:00,
2013-03-27 01:23:00,27.0,-99.9,30.27,West,270,5.0,7.0,-999,0.00,,,0.00,,2013-03-27 06:23:00,
2013-03-27 01:32:00,25.0,-99.9,30.28,West,270,3.0,6.0,-999,0.00,,,0.00,,2013-03-27 06:32:00,
2013-03-27 01:43:00,25.0,-99.9,30.28,West,270,3.0,6.0,-999,0.00,,,0.00,,2013-03-27 06:43:00,
2013-03-27 01:53:00,25.0,-99.9,30.28,West,270,5.0,5.0,-999,0.00,,,0.00,,2013-03-27 06:53:00,
2013-03-27 02:02:00,26.0,-99.9,30.28,West,270,3.0,7.0,-999,0.00,,,0.00,,2013-03-27 07:02:00,
2013-03-27 02:12:00,26.0,-99.9,30.28,West,270,3.0,7.0,-999,0.00,,,0.00,,2013-03-27 07:12:00,
2013-03-27 02:22:00,25.0,-99.9,30.28,West,270,5.0,6.0,-999,0.00,,,0.00,,2013-03-27 07:22:00,
2013-03-27 02:33:00,25.0,-99.9,30.28,WSW,248,1.0,6.0,-999,0.00,,,0.00,,2013-03-27 07:33:00,
2013-03-27 02:43:00,25.0,-99.9,30.28,WSW,248,1.0,6.0,-999,0.00,,,0.00,,2013-03-27 07:43:00,
2013-03-27 02:54:00,25.0,-99.9,30.28,West,270,3.0,6.0,-999,0.00,,,0.00,,2013-03-27 07:54:00,
2013-03-27 03:02:00,28.0,-99.9,30.28,West,270,7.0,9.0,-999,0.00,,,0.00,,2013-03-27 08:02:00,
2013-03-27 03:13:00,28.0,-99.9,30.28,West,270,7.0,9.0,-999,0.00,,,0.00,,2013-03-27 08:13:00,
2013-03-27 03:22:00,29.0,-99.9,30.28,West,270,6.0,9.0,-999,0.00,,,0.00,,2013-03-27 08:22:00,
2013-03-27 03:32:00,30.0,-99.9,30.28,West,270,7.0,10.0,-999,0.00,,,0.00,,2013-03-27 08:32:00,
2013-03-27 03:43:00,30.0,-99.9,30.28,West,270,7.0,10.0,-999,0.00,,,0.00,,2013-03-27 08:43:00,
2013-03-27 03:52:00,30.0,-99.9,30.27,West,270,7.0,12.0,-999,0.00,,,0.00,,2013-03-27 08:52:00,
2013-03-27 04:02:00,29.0,-99.9,30.27,WSW,248,3.0,8.0,-999,0.00,,,0.00,,2013-03-27 09:02:00,
2013-03-27 04:12:00,29.0,-99.9,30.27,WSW,248,3.0,8.0,-999,0.00,,,0.00,,2013-03-27 09:12:00,
2013-03-27 04:22:00,29.0,-99.9,30.27,West,270,7.0,9.0,-999,0.00,,,0.00,,2013-03-27 09:22:00,
2013-03-27 04:33:00,29.0,-99.9,30.27,West,270,5.0,9.0,-999,0.00,,,0.00,,2013-03-27 09:33:00,
2013-03-27 04:42:00,29.0,-99.9,30.27,West,270,5.0,9.0,-999,0.00,,,0.00,,2013-03-27 09:42:00,
2013-03-27 04:52:00,30.0,-99.9,30.27,West,270,5.0,8.0,-999,0.00,,,0.00,,2013-03-27 09:52:00,
2013-03-27 05:03:00,29.0,-99.9,30.27,West,270,5.0,7.0,-999,0.00,,,0.00,,2013-03-27 10:03:00,
2013-03-27 05:13:00,29.0,-99.9,30.27,West,270,5.0,7.0,-999,0.00,,,0.00,,2013-03-27 10:13:00,
2013-03-27 05:23:00,30.0,-99.9,30.27,NW,315,1.0,7.0,-999,0.00,,,0.00,,2013-03-27 10:23:00,
2013-03-27 05:32:00,29.0,-99.9,30.27,North,0,0.0,0.0,-999,0.00,,,0.00,,2013-03-27 10:32:00,
2013-03-27 05:42:00,29.0,-99.9,30.27,North,0,0.0,0.0,-999,0.00,,,0.00,,2013-03-27 10:42:00,
2013-03-27 05:53:00,30.0,-99.9,30.27,WNW,293,2.0,7.0,-999,0.00,,,0.00,,2013-03-27 10:53:00,
2013-03-27 06:03:00,30.0,-99.9,30.28,NW,315,0.0,7.0,-999,0.00,,,0.00,,2013-03-27 11:03:00,
2013-03-27 06:12:00,30.0,-99.9,30.28,NW,315,0.0,7.0,-999,0.00,,,0.00,,2013-03-27 11:12:00,
2013-03-27 06:22:00,29.0,-99.9,30.28,WSW,248,0.0,5.0,-999,0.00,,,0.00,,2013-03-27 11:22:00,
2013-03-27 06:32:00,29.0,-99.9,30.29,WSW,248,0.0,0.0,-999,0.00,,,0.00,,2013-03-27 11:32:00,
2013-03-27 06:43:00,29.0,-99.9,30.29,WSW,248,0.0,0.0,-999,0.00,,,0.00,,2013-03-27 11:43:00,
2013-03-27 06:53:00,29.0,-99.9,30.29,West,270,2.0,5.0,-999,0.00,,,0.00,,2013-03-27 11:53:00,
2013-03-27 07:02:00,29.0,-99.9,30.29,SW,225,3.0,6.0,-999,0.00,,,0.00,,2013-03-27 12:02:00,
2013-03-27 07:12:00,29.0,-99.9,30.29,SW,225,3.0,6.0,-999,0.00,,,0.00,,2013-03-27 12:12:00,
2013-03-27 07:23:00,29.0,-99.9,30.30,SSW,203,0.0,2.0,-999,0.00,,,0.00,,2013-03-27 12:23:00,
2013-03-27 07:32:00,30.0,-99.9,30.30,WNW,293,0.0,3.0,-999,0.00,,,0.00,,2013-03-27 12:32:00,
2013-03-27 07:44:00,30.0,-99.9,30.30,WNW,293,0.0,3.0,-999,0.00,,,0.00,,2013-03-27 12:44:00,
2013-03-27 07:52:00,31.0,-99.9,30.31,West,270,3.0,8.0,-999,0.00,,,0.00,,2013-03-27 12:52:00,
2013-03-27 08:02:00,32.0,-99.9,30.31,WNW,293,5.0,7.0,-999,0.00,,,0.00,,2013-03-27 13:02:00,
2013-03-27 08:12:00,32.0,-99.9,30.31,WNW,293,5.0,7.0,-999,0.00,,,0.00,,2013-03-27 13:12:00,
2013-03-27 08:23:00,33.0,-99.9,30.32,West,270,5.0,7.0,-999,0.00,,,0.00,,2013-03-27 13:23:00,
2013-03-27 08:33:00,35.0,-99.9,30.32,NW,315,3.0,7.0,-999,0.00,,,0.00,,2013-03-27 13:33:00,
2013-03-27 08:42:00,35.0,-99.9,30.32,NW,315,3.0,7.0,-999,0.00,,,0.00,,2013-03-27 13:42:00,
2013-03-27 08:53:00,34.0,-99.9,30.33,West,270,5.0,9.0,-999,0.00,,,0.00,,2013-03-27 13:53:00,
2013-03-27 09:02:00,36.0,-99.9,30.33,WNW,293,3.0,10.0,-999,0.00,,,0.00,,2013-03-27 14:02:00,
2013-03-27 09:12:00,36.0,-99.9,30.33,WNW,293,3.0,10.0,-999,0.00,,,0.00,,2013-03-27 14:12:00,
2013-03-27 09:22:00,36.0,-99.9,30.33,West,270,7.0,9.0,-999,0.00,,,0.00,,2013-03-27 14:22:00,
2013-03-27 09:32:00,37.0,-99.9,30.33,West,270,6.0,10.0,-999,0.00,,,0.00,,2013-03-27 14:32:00,
2013-03-27 09:42:00,37.0,-99.9,30.33,West,270,6.0,10.0,-999,0.00,,,0.00,,2013-03-27 14:42:00,
2013-03-27 09:52:00,37.0,-99.9,30.32,West,270,6.0,10.0,-999,0.00,,,0.00,,2013-03-27 14:52:00,
2013-03-27 10:03:00,38.0,-99.9,30.33,West,270,7.0,12.0,-999,0.00,,,0.00,,2013-03-27 15:03:00,
2013-03-27 10:12:00,38.0,-99.9,30.33,West,270,7.0,12.0,-999,0.00,,,0.00,,2013-03-27 15:12:00,
2013-03-27 10:23:00,39.0,-99.9,30.33,WNW,293,6.0,9.0,-999,0.00,,,0.00,,2013-03-27 15:23:00,
2013-03-27 10:33:00,39.0,-99.9,30.34,WNW,293,5.0,12.0,-999,0.00,,,0.00,,2013-03-27 15:33:00,
2013-03-27 10:43:00,39.0,-99.9,30.34,WNW,293,5.0,12.0,-999,0.00,,,0.00,,2013-03-27 15:43:00,
2013-03-27 10:53:00,39.0,-99.9,30.35,WNW,293,6.0,9.0,-999,0.00,,,0.00,,2013-03-27 15:53:00,
2013-03-27 11:03:00,41.0,-99.9,30.35,NW,315,5.0,10.0,-999,0.00,,,0.00,,2013-03-27 16:03:00,
2013-03-27 11:13:00,41.0,-99.9,30.35,NW,315,5.0,10.0,-999,0.00,,,0.00,,2013-03-27 16:13:00,
2013-03-27 11:23:00,41.0,-99.9,30.35,NW,315,3.0,10.0,-999,0.00,,,0.00,,2013-03-27 16:23:00,
2013-03-27 11:33:00,41.0,-99.9,30.35,NW,315,7.0,10.0,-999,0.00,,,0.00,,2013-03-27 16:33:00,
2013-03-27 11:42:00,41.0,-99.9,30.35,NW,315,7.0,10.0,-999,0.00,,,0.00,,2013-03-27 16:42:00,
2013-03-27 11:52:00,43.0,-99.9,30.35,NW,315,6.0,10.0,-999,0.00,,,0.00,,2013-03-27 16:52:00,
2013-03-27 12:03:00,43.0,-99.9,30.35,WNW,293,3.0,12.0,-999,0.00,,,0.00,,2013-03-27 17:03:00,
2013-03-27 12:12:00,43.0,-99.9,30.35,WNW,293,3.0,12.0,-999,0.00,,,0.00,,2013-03-27 17:12:00,
2013-03-27 12:22:00,44.0,-99.9,30.35,WNW,293,3.0,9.0,-999,0.00,,,0.00,,2013-03-27 17:22:00,
2013-03-27 12:33:00,45.0,-99.9,30.35,WNW,293,6.0,10.0,-999,0.00,,,0.00,,2013-03-27 17:33:00,
2013-03-27 12:44:00,45.0,-99.9,30.35,WNW,293,6.0,10.0,-999,0.00,,,0.00,,2013-03-27 17:44:00,
2013-03-27 12:52:00,45.0,-99.9,30.35,West,270,8.0,12.0,-999,0.00,,,0.00,,2013-03-27 17:52:00,
2013-03-27 13:03:00,46.0,-99.9,30.35,WNW,293,6.0,12.0,-999,0.00,,,0.00,,2013-03-27 18:03:00,
2013-03-27 13:12:00,46.0,-99.9,30.35,WNW,293,6.0,12.0,-999,0.00,,,0.00,,2013-03-27 18:12:00,
2013-03-27 13:23:00,47.0,-99.9,30.35,West,270,5.0,10.0,-999,0.00,,,0.00,,2013-03-27 18:23:00,
2013-03-27 13:33:00,47.0,-99.9,30.35,WNW,293,7.0,10.0,-999,0.00,,,0.00,,2013-03-27 18:33:00,
2013-03-27 13:42:00,47.0,-99.9,30.35,WNW,293,7.0,10.0,-999,0.00,,,0.00,,2013-03-27 18:42:00,
2013-03-27 13:53:00,47.0,-99.9,30.35,West,270,7.0,12.0,-999,0.00,,,0.00,,2013-03-27 18:53:00,
2013-03-27 14:03:00,47.0,-99.9,30.35,West,270,3.0,12.0,-999,0.00,,,0.00,,2013-03-27 19:03:00,
2013-03-27 14:12:00,47.0,-99.9,30.35,West,270,3.0,12.0,-999,0.00,,,0.00,,2013-03-27 19:12:00,
2013-03-27 14:22:00,47.0,-99.9,30.34,NW,315,3.0,12.0,-999,0.00,,,0.00,,2013-03-27 19:22:00,
2013-03-27 14:32:00,48.0,-99.9,30.34,WNW,293,3.0,10.0,-999,0.00,,,0.00,,2013-03-27 19:32:00,
2013-03-27 14:42:00,48.0,-99.9,30.34,WNW,293,3.0,10.0,-999,0.00,,,0.00,,2013-03-27 19:42:00,
2013-03-27 14:52:00,48.0,-99.9,30.33,West,270,5.0,12.0,-999,0.00,,,0.00,,2013-03-27 19:52:00,
2013-03-27 15:03:00,48.0,-99.9,30.33,West,270,9.0,14.0,-999,0.00,,,0.00,,2013-03-27 20:03:00,
2013-03-27 15:12:00,48.0,-99.9,30.33,West,270,9.0,14.0,-999,0.00,,,0.00,,2013-03-27 20:12:00,
2013-03-27 15:22:00,43.0,-99.9,30.33,NW,315,5.0,10.0,-999,0.00,,,0.00,,2013-03-27 20:22:00,
2013-03-27 15:32:00,44.0,-99.9,30.32,West,270,6.0,10.0,-999,0.00,,,0.00,,2013-03-27 20:32:00,
2013-03-27 15:43:00,44.0,-99.9,30.32,West,270,6.0,10.0,-999,0.00,,,0.00,,2013-03-27 20:43:00,
2013-03-27 15:52:00,45.0,-99.9,30.32,WSW,248,8.0,12.0,-999,0.00,,,0.00,,2013-03-27 20:52:00,
2013-03-27 16:02:00,45.0,-99.9,30.32,WSW,248,6.0,9.0,-999,0.00,,,0.00,,2013-03-27 21:02:00,
2013-03-27 16:12:00,45.0,-99.9,30.32,WSW,248,6.0,9.0,-999,0.00,,,0.00,,2013-03-27 21:12:00,
2013-03-27 16:23:00,50.0,-99.9,30.32,West,270,7.0,14.0,-999,0.00,,,0.00,,2013-03-27 21:23:00,
2013-03-27 16:33:00,49.0,-99.9,30.32,West,270,8.0,13.0,-999,0.00,,,0.00,,2013-03-27 21:33:00,
2013-03-27 16:44:00,49.0,-99.9,30.32,West,270,8.0,13.0,-999,0.00,,,0.00,,2013-03-27 21:44:00,
2013-03-27 16:52:00,48.0,-99.9,30.31,WSW,248,2.0,12.0,-999,0.00,,,0.00,,2013-03-27 21:52:00,
2013-03-27 17:03:00,43.0,-99.9,30.31,WSW,248,6.0,9.0,-999,0.00,,,0.00,,2013-03-27 22:03:00,
2013-03-27 17:12:00,43.0,-99.9,30.31,WSW,248,6.0,9.0,-999,0.00,,,0.00,,2013-03-27 22:12:00,
2013-03-27 17:23:00,43.0,-99.9,30.31,West,270,5.0,10.0,-999,0.00,,,0.00,,2013-03-27 22:23:00,
2013-03-27 17:33:00,42.0,-99.9,30.30,West,270,5.0,9.0,-999,0.00,,,0.00,,2013-03-27 22:33:00,
2013-03-27 17:43:00,42.0,-99.9,30.30,West,270,5.0,9.0,-999,0.00,,,0.00,,2013-03-27 22:43:00,
2013-03-27 17:53:00,46.0,-99.9,30.30,West,270,5.0,9.0,-999,0.00,,,0.00,,2013-03-27 22:53:00,
2013-03-27 18:03:00,45.0,-99.9,30.30,West,270,7.0,10.0,-999,0.00,,,0.00,,2013-03-27 23:03:00,
2013-03-27 18:12:00,45.0,-99.9,30.30,West,270,7.0,10.0,-999,0.00,,,0.00,,2013-03-27 23:12:00,
2013-03-27 18:22:00,41.0,-99.9,30.30,West,270,6.0,9.0,-999,0.00,,,0.00,,2013-03-27 23:22:00,
2013-03-27 18:32:00,38.0,-99.9,30.30,SW,225,3.0,7.0,-999,0.00,,,0.00,,2013-03-27 23:32:00,
2013-03-27 18:43:00,38.0,-99.9,30.30,SW,225,3.0,7.0,-999,0.00,,,0.00,,2013-03-27 23:43:00,
2013-03-27 18:52:00,38.0,-99.9,30.30,SW,225,3.0,7.0,-999,0.00,,,0.00,,2013-03-27 23:52:00,
2013-03-27 19:02:00,37.0,-99.9,30.30,WSW,248,5.0,8.0,-999,0.00,,,0.00,,2013-03-28 00:02:00,
2013-03-27 19:12:00,37.0,-99.9,30.30,WSW,248,5.0,8.0,-999,0.00,,,0.00,,2013-03-28 00:12:00,
2013-03-27 19:22:00,36.0,-99.9,30.30,WSW,248,6.0,8.0,-999,0.00,,,0.00,,2013-03-28 00:22:00,
2013-03-27 19:33:00,35.0,-99.9,30.30,SW,225,8.0,9.0,-999,0.00,,,0.00,,2013-03-28 00:33:00,
2013-03-27 19:43:00,35.0,-99.9,30.30,SW,225,8.0,9.0,-999,0.00,,,0.00,,2013-03-28 00:43:00,
2013-03-27 19:52:00,35.0,-99.9,30.30,SW,225,8.0,9.0,-999,0.00,,,0.00,,2013-03-28 00:52:00,
2013-03-27 20:02:00,35.0,-99.9,30.30,SW,225,7.0,9.0,-999,0.00,,,0.00,,2013-03-28 01:02:00,
2013-03-27 20:12:00,35.0,-99.9,30.30,SW,225,7.0,9.0,-999,0.00,,,0.00,,2013-03-28 01:12:00,
2013-03-27 20:22:00,34.0,-99.9,30.30,SW,225,3.0,8.0,-999,0.00,,,0.00,,2013-03-28 01:22:00,
2013-03-27 20:32:00,34.0,-99.9,30.31,SW,225,6.0,8.0,-999,0.00,,,0.00,,2013-03-28 01:32:00,
2013-03-27 20:42:00,34.0,-99.9,30.31,SW,225,6.0,8.0,-999,0.00,,,0.00,,2013-03-28 01:42:00,
2013-03-27 20:53:00,33.0,-99.9,30.31,WSW,248,3.0,7.0,-999,0.00,,,0.00,,2013-03-28 01:53:00,
2013-03-27 21:03:00,33.0,-99.9,30.31,WSW,248,3.0,5.0,-999,0.00,,,0.00,,2013-03-28 02:03:00,
2013-03-27 21:12:00,33.0,-99.9,30.31,WSW,248,3.0,5.0,-999,0.00,,,0.00,,2013-03-28 02:12:00,
2013-03-27 21:22:00,33.0,-99.9,30.31,WSW,248,3.0,5.0,-999,0.00,,,0.00,,2013-03-28 02:22:00,
2013-03-27 21:33:00,32.0,-99.9,30.32,WSW,248,0.0,2.0,-999,0.00,,,0.00,,2013-03-28 02:33:00,
2013-03-27 21:42:00,32.0,-99.9,30.32,WSW,248,0.0,2.0,-999,0.00,,,0.00,,2013-03-28 02:42:00,
2013-03-27 21:52:00,32.0,-99.9,30.32,WSW,248,0.0,2.0,-999,0.00,,,0.00,,2013-03-28 02:52:00,
2013-03-27 22:02:00,32.0,-99.9,30.32,WSW,248,0.0,0.0,-999,0.00,,,0.00,,2013-03-28 03:02:00,
2013-03-27 22:12:00,32.0,-99.9,30.32,WSW,248,0.0,0.0,-999,0.00,,,0.00,,2013-03-28 03:12:00,
2013-03-27 22:22:00,32.0,-99.9,30.32,WSW,248,0.0,0.0,-999,0.00,,,0.00,,2013-03-28 03:22:00,
2013-03-27 22:33:00,31.0,-99.9,30.32,WSW,248,0.0,0.0,-999,0.00,,,0.00,,2013-03-28 03:33:00,
2013-03-27 22:43:00,31.0,-99.9,30.32,WSW,248,0.0,0.0,-999,0.00,,,0.00,,2013-03-28 03:43:00,
2013-03-27 22:53:00,31.0,-99.9,30.32,WSW,248,0.0,0.0,-999,0.00,,,0.00,,2013-03-28 03:53:00,
2013-03-27 23:03:00,30.0,-99.9,30.32,WSW,248,0.0,0.0,-999,0.00,,,0.00,,2013-03-28 04:03:00,
2013-03-27 23:12:00,30.0,-99.9,30.32,WSW,248,0.0,0.0,-999,0.00,,,0.00,,2013-03-28 04:12:00,
2013-03-27 23:23:00,30.0,-99.9,30.32,WSW,248,3.0,5.0,-999,0.00,,,0.00,,2013-03-28 04:23:00,
2013-03-27 23:32:00,30.0,-99.9,30.32,WSW,248,3.0,5.0,-999,0.00,,,0.00,,2013-03-28 04:32:00,
2013-03-27 23:42:00,30.0,-99.9,30.32,WSW,248,3.0,5.0,-999,0.00,,,0.00,,2013-03-28 04:42:00,
2013-03-27 23:53:00,30.0,-99.9,30.32,West,270,3.0,6.0,-999,0.00,,,0.00,,2013-03-28 04:53:00,